Date,TemperatureHighF,TemperatureAvgF,TemperatureLowF,DewpointHighF,DewpointAvgF,DewpointLowF,HumidityHigh,HumidityAvg,HumidityLow,PressureMaxIn,PressureMinIn,WindSpeedMaxMPH,WindSpeedAvgMPH,GustSpeedMaxMPH,PrecipitationSumIn
2013-1-1,18,11,4,0,0,0,0,0,100,0.00,0.00,19,8,20,0.00
2013-1-2,20,12,0,0,0,0,0,0,100,0.00,0.00,18,6,19,0.00
2013-1-3,22,7,-4,0,0,0,0,0,100,0.00,0.00,18,3,19,0.00
2013-1-4,28,8,-5,0,0,0,0,0,100,0.00,0.00,14,1,14,0.00
2013-1-5,28,12,0,0,0,0,0,0,100,0.00,0.00,17,3,18,0.00
2013-1-6,39,19,0,0,0,0,0,0,100,0.00,0.00,23,3,25,0.00
2013-1-7,37,24,12,0,0,0,0,0,100,0.00,0.00,30,6,31,0.00
2013-1-8,35,28,22,0,0,0,0,0,100,0.00,0.00,32,11,33,0.00
2013-1-9,44,32,20,0,0,0,0,0,100,0.00,0.00,20,4,20,0.00
2013-1-10,43,36,30,0,0,0,0,0,100,0.00,0.00,31,10,31,0.00
2013-1-11,33,16,2,0,0,0,0,0,100,0.00,0.00,34,6,34,0.00
2013-1-12,12,3,-3,0,0,0,0,0,100,0.00,0.00,13,2,13,0.00
2013-1-13,11,-1,-11,0,0,0,0,0,100,0.00,0.00,11,1,12,0.00
2013-1-14,5,-4,-13,0,0,0,0,0,100,0.00,0.00,26,5,28,0.00
2013-1-15,15,8,-2,0,0,0,0,0,100,0.00,0.00,33,14,33,0.00
2013-1-16,27,18,12,0,0,0,0,0,100,0.00,0.00,26,9,27,0.00
2013-1-17,36,20,5,0,0,0,0,0,100,0.00,0.00,21,3,21,0.00
2013-1-18,37,28,21,0,0,0,0,0,100,0.00,0.00,33,8,33,0.00
2013-1-19,39,28,19,0,0,0,0,0,100,0.00,0.00,28,7,30,0.00
2013-1-20,37,28,20,0,0,0,0,0,100,0.00,0.00,26,5,26,0.00
2013-1-21,33,33,33,0,0,0,0,0,100,0.00,40.00,0,0,4,0.00
2013-1-22,43,35,31,0,0,0,0,0,100,0.00,0.00,33,5,33,0.00
2013-1-23,50,39,33,0,0,0,0,0,100,0.00,0.00,23,5,24,0.00
2013-1-24,44,36,31,0,0,0,0,0,100,0.00,0.00,29,6,29,0.00
2013-1-25,41,35,30,0,0,0,0,0,100,0.00,0.00,25,8,26,0.00
2013-1-26,47,38,32,0,0,0,0,0,100,0.00,0.00,18,4,19,0.00
2013-1-27,44,36,32,0,0,0,0,0,100,0.00,0.00,27,6,29,0.00
2013-1-28,33,21,9,0,0,0,0,0,100,0.00,0.00,20,5,22,0.00
2013-1-29,22,13,5,0,0,0,0,0,100,0.00,0.00,22,6,24,0.00
2013-1-30,35,21,6,0,0,0,0,0,100,0.00,0.00,28,8,29,0.00
2013-1-31,37,28,22,0,0,0,0,0,100,0.00,0.00,27,9,28,0.00
2013-2-1,36,29,23,0,0,0,0,0,100,0.00,0.00,34,8,34,0.00
2013-2-2,38,27,19,0,0,0,0,0,100,0.00,0.00,27,8,28,0.00
2013-2-3,38,29,23,0,0,0,0,0,100,0.00,0.00,22,6,23,0.00
2013-2-4,39,28,21,0,0,0,0,0,100,0.00,0.00,29,9,29,0.00
2013-2-5,45,34,25,0,0,0,0,0,100,0.00,0.00,26,6,31,0.00
2013-2-6,42,33,22,0,0,0,0,0,100,0.00,0.00,21,4,21,0.00
2013-2-7,41,27,12,0,0,0,0,0,100,0.00,0.00,19,4,19,0.00
2013-2-8,49,34,26,0,0,0,0,0,100,0.00,0.00,23,2,23,0.00
2013-2-9,31,26,22,0,0,0,0,0,100,0.00,0.00,10,0,10,0.00
2013-2-10,32,20,2,0,0,0,0,0,100,0.00,0.00,15,0,16,0.00
2013-2-11,23,9,-4,0,0,0,0,0,100,0.00,0.00,14,2,15,0.00
2013-2-12,25,15,7,0,0,0,0,0,100,0.00,0.00,29,8,29,0.00
2013-2-13,33,24,18,0,0,0,0,0,100,0.00,0.00,33,10,34,0.00
2013-2-14,35,25,13,0,0,0,0,0,100,0.00,0.00,26,4,26,0.00
2013-2-15,32,23,13,0,0,0,0,0,100,0.00,0.00,24,7,24,0.00
2013-2-16,40,29,20,0,0,0,0,0,100,0.00,0.00,30,9,31,0.00
2013-2-17,38,30,23,0,0,0,0,0,100,0.00,0.00,26,6,26,0.00
2013-2-18,31,20,12,0,0,0,0,0,100,0.00,0.00,21,5,21,0.00
2013-2-19,42,28,14,0,0,0,0,0,100,0.00,0.00,24,3,24,0.00
2013-2-20,45,29,19,0,0,0,0,0,100,0.00,0.00,12,0,12,0.00
2013-2-21,29,23,20,0,0,0,0,0,100,0.00,0.00,19,2,19,0.00
2013-2-22,32,20,12,0,0,0,0,0,100,0.00,0.00,24,6,24,0.00
2013-2-23,34,23,17,0,0,0,0,0,100,0.00,0.00,28,9,28,0.00
2013-2-24,31,21,6,0,0,0,0,0,100,0.00,0.00,15,2,15,0.00
2013-2-25,32,18,4,0,0,0,0,0,100,0.00,0.00,28,6,28,0.00
2013-2-26,31,19,5,0,0,0,0,0,100,0.00,0.00,24,4,24,0.00
2013-2-27,26,15,1,0,0,0,0,0,100,0.00,0.00,23,6,24,0.00
2013-2-28,34,21,12,0,0,0,0,0,100,0.00,0.00,27,8,27,0.00
2013-3-1,42,30,20,0,0,0,0,0,100,0.00,0.00,27,8,27,0.00
2013-3-2,47,36,28,0,0,0,0,0,100,0.00,0.00,27,7,29,0.00
2013-3-3,42,37,33,0,0,0,0,0,100,0.00,0.00,31,8,31,0.00
2013-3-4,33,26,15,0,0,0,0,0,100,0.00,0.00,22,3,22,0.00
2013-3-5,44,29,14,0,0,0,0,0,100,0.00,0.00,22,4,23,0.00
2013-3-6,52,41,31,0,0,0,0,0,100,0.00,0.00,30,7,34,0.00
2013-3-7,52,40,30,0,0,0,0,0,100,0.00,0.00,22,3,24,0.00
2013-3-8,53,42,30,0,0,0,0,0,100,0.00,0.00,20,2,21,0.00
2013-3-9,39,31,22,0,0,0,0,0,100,0.00,0.00,15,2,16,0.00
2013-3-10,46,31,18,0,0,0,0,0,100,0.00,0.00,23,5,23,0.00
2013-3-11,46,35,28,0,0,0,0,0,100,0.00,0.00,34,8,35,0.00
2013-3-12,47,35,26,0,0,0,0,0,100,0.00,0.00,27,5,29,0.00
2013-3-13,57,43,33,0,0,0,0,0,100,0.00,0.00,29,7,32,0.00
2013-3-14,63,48,36,0,0,0,0,0,100,0.00,0.00,22,5,22,0.00
2013-3-15,64,51,42,0,0,0,0,0,100,0.00,0.00,29,5,29,0.00
2013-3-16,56,43,32,0,0,0,0,0,100,0.00,0.00,26,4,26,0.00
2013-3-17,40,33,22,0,0,0,0,0,100,0.00,0.00,47,10,47,0.00
2013-3-18,40,28,18,0,0,0,0,0,100,0.00,0.00,33,8,42,0.00
2013-3-19,46,32,18,0,0,0,0,0,100,0.00,0.00,27,7,27,0.00
2013-3-20,49,35,20,0,0,0,0,0,100,0.00,0.00,30,6,33,0.00
2013-3-21,40,34,22,0,0,0,0,0,100,0.00,0.00,32,8,35,0.00
2013-3-22,36,24,17,0,0,0,0,0,100,0.00,0.00,26,4,26,0.00
2013-3-23,32,22,14,0,0,0,0,0,100,0.00,0.00,16,1,16,0.00
2013-3-24,29,19,7,0,0,0,0,0,100,0.00,0.00,16,2,16,0.00
2013-3-25,40,24,8,0,0,0,0,0,100,0.00,0.00,18,2,18,0.00
2013-3-26,47,35,24,0,0,0,0,0,100,0.00,0.00,22,3,26,0.00
2013-3-27,56,40,24,0,0,0,0,0,100,0.00,0.00,21,2,21,0.00
2013-3-28,63,44,28,0,0,0,0,0,100,0.00,0.00,14,1,14,0.00
2013-3-29,61,47,35,0,0,0,0,0,100,0.00,0.00,32,4,32,0.00
2013-3-30,57,44,33,0,0,0,0,0,100,0.00,0.00,25,3,27,0.00
2013-3-31,64,46,26,0,0,0,0,0,100,0.00,0.00,30,5,30,0.00
2013-4-1,61,44,30,0,0,0,0,0,100,0.00,0.00,16,1,16,0.00
2013-4-2,53,42,33,0,0,0,0,0,100,0.00,0.00,21,3,22,0.00
2013-4-3,64,43,25,0,0,0,0,0,100,0.00,0.00,27,2,29,0.00
2013-4-4,67,50,32,0,0,0,0,0,100,0.00,0.00,22,4,22,0.00
2013-4-5,61,49,39,0,0,0,0,0,100,0.00,0.00,33,7,33,0.00
2013-4-6,59,43,32,0,0,0,0,0,100,0.00,0.00,28,6,28,0.00
2013-4-7,53,42,34,0,0,0,0,0,100,0.00,0.00,30,8,30,0.00
2013-4-8,57,34,12,0,0,0,0,0,100,0.00,0.00,31,3,31,0.00
2013-4-9,20,12,8,0,0,0,0,0,100,0.00,0.00,25,2,25,0.00
2013-4-10,39,23,9,0,0,0,0,0,100,0.00,0.00,29,4,29,0.00
2013-4-11,50,38,30,0,0,0,0,0,100,0.00,0.00,23,3,23,0.00
2013-4-12,52,40,33,0,0,0,0,0,100,0.00,0.00,21,2,21,0.00
2013-4-13,52,40,31,0,0,0,0,0,100,0.00,0.00,33,7,33,0.00
2013-4-14,40,30,21,0,0,0,0,0,100,0.00,0.00,32,7,34,0.00
2013-4-15,36,29,23,0,0,0,0,0,100,0.00,0.00,25,4,25,0.00
2013-4-16,29,22,17,0,0,0,0,0,100,0.00,0.00,25,5,25,0.00
2013-4-17,30,20,16,0,0,0,0,0,100,0.00,0.00,15,3,16,0.00
2013-4-18,42,23,2,0,0,0,0,0,100,0.00,0.00,17,2,17,0.00
2013-4-19,43,32,22,0,0,0,0,0,100,0.00,0.00,30,8,30,0.00
2013-4-20,51,38,33,0,0,0,0,0,100,0.00,0.00,25,7,25,0.00
2013-4-21,52,41,32,0,0,0,0,0,100,0.00,0.00,36,6,36,0.00
2013-4-22,40,29,19,0,0,0,0,0,100,0.00,0.00,21,4,21,0.00
2013-4-23,42,28,16,0,0,0,0,0,100,0.00,0.00,17,2,18,0.00
2013-4-24,53,38,25,0,0,0,0,0,100,0.00,0.00,20,3,21,0.00
2013-4-25,63,46,28,0,0,0,0,0,100,0.00,0.00,24,4,24,0.00
2013-4-26,68,49,30,0,0,0,0,0,100,0.00,0.00,22,1,22,0.00
2013-4-27,71,54,36,0,0,0,0,0,100,0.00,0.00,24,5,24,0.00
2013-4-28,72,56,45,0,0,0,0,0,100,0.00,0.00,32,6,32,0.00
2013-4-29,69,54,40,0,0,0,0,0,100,0.00,0.00,41,10,41,0.00
2013-4-30,52,47,39,0,0,0,0,0,100,0.00,0.00,26,6,26,0.00
2013-5-2,55,42,21,0,0,0,0,0,100,0.00,0.00,20,2,20,0.00
2013-5-3,66,48,30,0,0,0,0,0,100,0.00,0.00,16,2,16,0.00
2013-5-4,64,50,42,0,0,0,0,0,100,0.00,0.00,27,7,27,0.00
2013-5-5,66,49,36,0,0,0,0,0,100,0.00,0.00,19,4,20,0.00
2013-5-6,74,52,38,0,0,0,0,0,100,0.00,0.00,20,1,21,0.00
2013-5-7,66,52,45,0,0,0,0,0,100,0.00,0.00,20,4,21,0.00
2013-5-8,66,50,39,0,0,0,0,0,100,0.00,0.00,25,2,26,0.00
2013-5-9,70,51,41,0,0,0,0,0,100,0.00,0.00,17,2,18,0.00
2013-5-10,72,55,38,0,0,0,0,0,100,0.00,0.00,14,1,15,0.00
2013-5-11,74,57,42,0,0,0,0,0,100,0.00,0.00,20,2,20,0.00
2013-5-12,81,63,43,0,0,0,0,0,100,0.00,0.00,18,3,19,0.00
2013-5-13,87,68,52,0,0,0,0,0,100,0.00,0.00,22,5,22,0.00
2013-5-14,86,69,53,0,0,0,0,0,100,0.00,0.00,21,2,21,0.00
2013-5-15,82,61,50,0,0,0,0,0,100,0.00,0.00,23,2,23,0.00
2013-5-16,76,60,46,0,0,0,0,0,100,0.00,0.00,33,4,34,0.00
2013-5-17,79,63,50,0,0,0,0,0,100,0.00,0.00,26,5,27,0.00
2013-5-18,69,53,43,0,0,0,0,0,100,0.00,0.00,26,4,27,0.00
2013-5-19,58,47,40,0,0,0,0,0,100,0.00,0.00,20,4,20,0.00
2013-5-20,58,47,38,0,0,0,0,0,100,0.00,0.00,23,3,23,0.00
2013-5-21,66,50,36,0,0,0,0,0,100,0.00,0.00,12,3,16,0.00
2013-5-22,76,59,41,0,0,0,0,0,100,0.00,0.00,23,4,24,0.00
2013-5-23,81,64,48,0,0,0,0,0,100,0.00,0.00,31,5,31,0.00
2013-5-24,77,60,45,0,0,0,0,0,100,0.00,0.00,25,4,25,0.00
2013-5-25,79,62,46,0,0,0,0,0,100,0.00,0.00,34,4,34,0.00
2013-5-26,80,61,43,0,0,0,0,0,100,0.00,0.00,22,2,25,0.00
2013-5-27,72,57,45,0,0,0,0,0,100,0.00,0.00,26,4,26,0.00
2013-5-28,75,56,42,0,0,0,0,0,100,0.00,0.00,25,3,26,0.00
2013-5-29,60,50,44,0,0,0,0,0,100,0.00,0.00,25,5,26,0.00
2013-5-30,62,50,40,0,0,0,0,0,100,0.00,0.00,33,9,34,0.00
2013-5-31,65,50,37,0,0,0,0,0,100,0.00,0.00,31,6,32,0.00
2013-6-1,72,54,43,0,0,0,0,0,100,0.00,0.00,13,1,14,0.00
2013-6-2,82,64,43,0,0,0,0,0,100,0.00,0.00,33,4,37,0.00
2013-6-3,74,65,53,0,0,0,0,0,100,0.00,0.00,31,6,31,0.00
2013-6-4,74,57,40,0,0,0,0,0,100,0.00,0.00,24,2,26,0.00
2013-6-5,75,58,42,0,0,0,0,0,100,0.00,0.00,12,1,13,0.00
2013-6-6,80,63,45,0,0,0,0,0,100,0.00,0.00,15,1,15,0.00
2013-6-7,80,68,54,0,0,0,0,0,100,0.00,0.00,22,3,25,0.00
2013-6-8,84,66,54,0,0,0,0,0,100,0.00,0.00,19,2,20,0.00
2013-6-9,90,76,51,0,0,0,0,0,100,0.00,0.00,24,6,24,0.00
2013-6-10,93,76,56,0,0,0,0,0,100,0.00,0.00,26,3,27,0.00
2013-6-11,84,72,59,0,0,0,0,0,100,0.00,0.00,35,6,35,0.00
2013-6-12,87,70,51,0,0,0,0,0,100,0.00,0.00,22,3,25,0.00
2013-6-13,88,73,58,0,0,0,0,0,100,0.00,0.00,30,5,31,0.00
2013-6-14,83,65,49,0,0,0,0,0,100,0.00,0.00,24,5,25,0.00
2013-6-15,86,65,44,0,0,0,0,0,100,0.00,0.00,21,2,21,0.00
2013-6-16,84,67,51,0,0,0,0,0,100,0.00,0.00,23,4,25,0.00
2013-6-17,85,70,51,0,0,0,0,0,100,0.00,0.00,16,1,16,0.00
2013-6-18,81,67,53,0,0,0,0,0,100,0.00,0.00,24,2,24,0.00
2013-6-19,86,70,53,0,0,0,0,0,100,0.00,0.00,30,5,30,0.00
2013-6-20,82,63,46,0,0,0,0,0,100,0.00,0.00,19,2,20,0.00
2013-6-21,84,67,49,0,0,0,0,0,100,0.00,0.00,27,4,27,0.00
2013-6-22,78,64,53,0,0,0,0,0,100,0.00,0.00,33,3,33,0.00
2013-6-23,84,64,44,0,0,0,0,0,100,0.00,0.00,20,2,20,0.00
2013-6-24,84,70,50,0,0,0,0,0,100,0.00,0.00,26,5,26,0.00
2013-6-25,80,67,53,0,0,0,0,0,100,0.00,0.00,26,6,26,0.00
2013-6-26,90,74,53,0,0,0,0,0,100,0.00,0.00,24,3,24,0.00
2013-6-27,95,77,57,0,0,0,0,0,100,0.00,0.00,18,1,18,0.00
2013-6-28,93,80,66,0,0,0,0,0,100,0.00,0.00,12,1,12,0.00
2013-6-29,90,76,65,0,0,0,0,0,100,0.00,0.00,16,1,16,0.00
2013-6-30,88,74,61,0,0,0,0,0,100,0.00,0.00,13,1,14,0.00
2013-7-1,86,74,60,0,0,0,0,0,100,0.00,0.00,12,1,12,0.00
2013-7-2,88,74,58,0,0,0,0,0,100,0.00,0.00,14,1,14,0.00
2013-7-3,86,68,52,0,0,0,0,0,100,0.00,0.00,21,2,24,0.00
2013-7-4,90,70,55,0,0,0,0,0,100,0.00,0.00,15,1,16,0.00
2013-7-5,86,70,58,0,0,0,0,0,100,0.00,0.00,19,2,20,0.00
2013-7-6,87,70,56,0,0,0,0,0,100,0.00,0.00,13,3,15,0.00
2013-7-7,88,72,59,0,0,0,0,0,100,0.00,0.00,22,3,26,0.00
2013-7-8,84,71,60,0,0,0,0,0,100,0.00,0.00,21,2,21,0.00
2013-7-9,89,74,58,0,0,0,0,0,100,0.00,0.00,22,2,24,0.00
2013-7-10,95,78,62,0,0,0,0,0,100,0.00,0.00,15,0,16,0.00
2013-7-11,94,79,63,0,0,0,0,0,100,0.00,0.00,20,3,20,0.00
2013-7-12,84,72,60,0,0,0,0,0,100,0.00,0.00,19,4,20,0.00
2013-7-13,82,67,59,0,0,0,0,0,100,0.00,0.00,19,2,19,0.00
2013-7-14,88,70,58,0,0,0,0,0,100,0.00,0.00,16,1,16,0.00
2013-7-15,92,75,61,0,0,0,0,0,100,0.00,0.00,21,2,24,0.00
2013-7-16,89,75,60,0,0,0,0,0,100,0.00,0.00,18,4,19,0.00
2013-7-17,94,76,60,0,0,0,0,0,100,0.00,0.00,18,1,19,0.00
2013-7-18,90,76,63,0,0,0,0,0,100,0.00,0.00,16,2,16,0.00
2013-7-19,89,76,63,0,0,0,0,0,100,0.00,0.00,17,2,18,0.00
2013-7-20,94,77,60,0,0,0,0,0,100,0.00,0.00,12,0,13,0.00
2013-7-21,94,78,57,0,0,0,0,0,100,0.00,0.00,22,2,22,0.00
2013-7-22,94,77,55,0,0,0,0,0,100,0.00,0.00,23,3,23,0.00
2013-7-23,94,76,56,0,0,0,0,0,100,0.00,0.00,18,1,19,0.00
2013-7-24,92,75,66,0,0,0,0,0,100,0.00,0.00,21,1,21,0.00
2013-7-25,85,69,58,0,0,0,0,0,100,0.00,0.00,23,1,23,0.00
2013-7-26,88,70,55,0,0,0,0,0,100,0.00,0.00,18,1,18,0.00
2013-7-27,84,68,58,0,0,0,0,0,100,0.00,0.00,17,1,17,0.00
2013-7-28,86,70,59,0,0,0,0,0,100,0.00,0.00,23,2,23,0.00
2013-7-29,84,67,56,0,0,0,0,0,100,0.00,0.00,26,3,26,0.00
2013-7-30,85,68,54,0,0,0,0,0,100,0.00,0.00,27,3,28,0.00
2013-7-31,90,71,56,0,0,0,0,0,100,0.00,0.00,30,1,34,0.00
2013-8-1,88,70,59,0,0,0,0,0,100,0.00,0.00,25,4,32,0.00
2013-8-2,88,74,63,0,0,0,0,0,100,0.00,0.00,17,5,18,0.00
2013-8-3,92,76,58,0,0,0,0,0,100,0.00,0.00,14,4,20,0.00
2013-8-4,88,75,60,0,0,0,0,0,100,0.00,0.00,16,4,21,0.00
2013-8-5,89,75,66,0,0,0,0,0,100,0.00,0.00,19,4,19,0.00
2013-8-6,88,74,59,0,0,0,0,0,100,0.00,0.00,20,2,20,0.00
2013-8-7,86,71,56,0,0,0,0,0,100,0.00,0.00,13,0,13,0.00
2013-8-8,81,68,59,0,0,0,0,0,100,0.00,0.00,16,1,17,0.00
2013-8-9,80,65,56,0,0,0,0,0,100,0.00,0.00,20,1,21,0.00
2013-8-10,77,63,56,0,0,0,0,0,100,0.00,0.00,18,1,18,0.00
2013-8-11,83,73,64,0,0,0,0,0,100,0.00,0.00,14,1,15,0.00
2013-8-12,84,66,56,0,0,0,0,0,100,0.00,0.00,20,1,22,0.00
2013-8-13,77,63,52,0,0,0,0,0,100,0.00,0.00,18,1,22,0.00
2013-8-14,84,66,49,0,0,0,0,0,100,0.00,0.00,16,1,16,0.00
2013-8-15,88,70,51,0,0,0,0,0,100,0.00,0.00,15,1,17,0.00
2013-8-16,92,72,55,0,0,0,0,0,100,0.00,0.00,14,0,14,0.00
2013-8-17,93,73,53,0,0,0,0,0,100,0.00,0.00,18,1,18,0.00
2013-8-18,94,76,64,0,0,0,0,0,100,0.00,0.00,20,4,20,0.00
2013-8-19,93,76,59,0,0,0,0,0,100,0.00,0.00,20,2,20,0.00
2013-8-20,86,73,61,0,0,0,0,0,100,0.00,0.00,21,4,21,0.00
2013-8-21,86,69,60,0,0,0,0,0,100,0.00,0.00,18,2,18,0.00
2013-8-22,85,72,57,0,0,0,0,0,100,0.00,0.00,16,1,16,0.00
2013-8-23,87,68,60,0,0,0,0,0,100,0.00,0.00,31,3,32,0.00
2013-8-24,81,66,54,0,0,0,0,0,100,0.00,0.00,23,3,23,0.00
2013-8-25,76,66,61,0,0,0,0,0,100,0.00,0.00,18,3,18,0.00
2013-8-26,80,67,60,0,0,0,0,0,100,0.00,0.00,22,5,22,0.00
2013-8-27,87,71,60,0,0,0,0,0,100,0.00,0.00,22,3,22,0.00
2013-8-28,90,74,58,0,0,0,0,0,100,0.00,0.00,16,2,17,0.00
2013-8-29,92,74,57,0,0,0,0,0,100,0.00,0.00,16,1,16,0.00
2013-8-30,90,75,59,0,0,0,0,0,100,0.00,0.00,14,2,14,0.00
2013-8-31,90,74,60,0,0,0,0,0,100,0.00,0.00,14,2,16,0.00
2013-9-1,88,73,59,0,0,0,0,0,100,0.00,0.00,11,0,11,0.00
2013-9-2,88,74,64,0,0,0,0,0,100,0.00,0.00,22,3,24,0.00
2013-9-3,88,73,60,0,0,0,0,0,100,0.00,0.00,13,2,15,0.00
2013-9-4,92,75,59,0,0,0,0,0,100,0.00,0.00,15,1,15,0.00
2013-9-5,92,75,63,0,0,0,0,0,100,0.00,0.00,18,2,20,0.00
2013-9-6,90,76,65,0,0,0,0,0,100,0.00,0.00,18,2,19,0.00
2013-9-7,86,73,60,0,0,0,0,0,100,0.00,0.00,22,2,23,0.00
2013-9-8,81,66,57,0,0,0,0,0,100,0.00,0.00,18,3,19,0.00
2013-9-9,70,61,56,0,0,0,0,0,100,0.00,0.00,12,2,12,0.00
2013-9-10,65,59,55,0,0,0,0,0,100,0.00,0.00,21,2,21,0.00
2013-9-11,67,58,55,0,0,0,0,0,100,0.00,0.00,19,3,19,0.00
2013-9-12,69,58,54,0,0,0,0,0,100,0.00,0.00,20,4,20,0.00
2013-9-13,72,60,55,0,0,0,0,0,100,0.00,0.00,8,0,8,0.00
2013-9-14,68,58,54,0,0,0,0,0,100,0.00,0.00,16,1,16,0.00
2013-9-15,67,57,53,0,0,0,0,0,100,0.00,0.00,16,2,17,0.00
2013-9-16,75,61,49,0,0,0,0,0,100,0.00,0.00,20,3,20,0.00
2013-9-17,77,64,56,0,0,0,0,0,100,0.00,0.00,28,4,28,0.00
2013-9-18,70,63,50,0,0,0,0,0,100,0.00,0.00,20,5,21,0.00
2013-9-19,64,49,39,0,0,0,0,0,100,0.00,0.00,13,3,13,0.00
2013-9-20,74,54,37,0,0,0,0,0,100,0.00,0.00,17,2,18,0.00
2013-9-21,77,63,49,0,0,0,0,0,100,0.00,0.00,22,4,22,0.00
2013-9-22,68,57,46,0,0,0,0,0,100,0.00,0.00,29,4,29,0.00
2013-9-23,64,52,43,0,0,0,0,0,100,0.00,0.00,22,7,24,0.00
2013-9-24,71,57,42,0,0,0,0,0,100,0.00,0.00,23,6,24,0.00
2013-9-25,73,57,38,0,0,0,0,0,100,0.00,0.00,29,9,29,0.00
2013-9-26,69,50,38,0,0,0,0,0,100,0.00,0.00,21,2,21,0.00
2013-9-27,44,39,35,0,0,0,0,0,100,0.00,0.00,22,4,25,0.00
2013-9-28,56,42,33,0,0,0,0,0,100,0.00,0.00,33,8,33,0.00
2013-9-29,67,54,43,0,0,0,0,0,100,0.00,0.00,28,7,28,0.00
2013-9-30,64,55,51,0,0,0,0,0,100,0.00,0.00,27,8,29,0.00
2013-10-1,73,64,53,0,0,0,0,0,100,0.00,0.00,20,4,20,0.00
2013-10-2,71,56,43,0,0,0,0,0,100,0.00,0.00,17,1,17,0.00
2013-10-3,52,41,33,0,0,0,0,0,100,0.00,0.00,23,3,24,0.00
2013-10-4,33,29,25,0,0,0,0,0,100,0.00,0.00,0,0,0,0.00
2013-10-5,39,31,23,0,0,0,0,0,100,0.00,0.00,27,8,30,0.00
2013-10-6,54,41,33,0,0,0,0,0,100,0.00,0.00,22,6,22,0.00
2013-10-7,66,52,38,0,0,0,0,0,100,0.00,0.00,23,3,23,0.00
2013-10-8,65,55,44,0,0,0,0,0,100,0.00,0.00,18,6,24,0.00
2013-10-9,60,47,38,0,0,0,0,0,100,0.00,0.00,12,1,12,0.00
2013-10-10,49,42,39,0,0,0,0,0,100,0.00,0.00,21,3,22,0.00
2013-10-11,47,39,33,0,0,0,0,0,100,0.00,0.00,22,5,26,0.00
2013-10-12,54,42,31,0,0,0,0,0,100,0.00,0.00,18,2,18,0.00
2013-10-13,59,47,37,0,0,0,0,0,100,0.00,0.00,16,1,17,0.00
2013-10-14,44,36,30,0,0,0,0,0,100,0.00,0.00,13,2,14,0.00
2013-10-15,35,31,28,0,0,0,0,0,100,0.00,0.00,12,1,13,0.00
2013-10-16,48,35,26,0,0,0,0,0,100,0.00,0.00,27,8,27,0.00
2013-10-17,45,36,32,0,0,0,0,0,100,0.00,0.00,17,3,18,0.00
2013-10-18,45,35,28,0,0,0,0,0,100,0.00,0.00,19,2,20,0.00
2013-10-19,54,42,32,0,0,0,0,0,100,0.00,0.00,36,8,36,0.00
2013-10-20,49,40,35,0,0,0,0,0,100,0.00,0.00,15,2,15,0.00
2013-10-21,55,40,26,0,0,0,0,0,100,0.00,0.00,21,3,21,0.00
2013-10-22,62,47,35,0,0,0,0,0,100,0.00,0.00,18,5,19,0.00
2013-10-23,64,47,33,0,0,0,0,0,100,0.00,0.00,14,2,14,0.00
2013-10-24,65,45,31,0,0,0,0,0,100,0.00,0.00,8,0,9,0.00
2013-10-25,64,46,31,0,0,0,0,0,100,0.00,0.00,15,1,16,0.00
2013-10-26,62,46,34,0,0,0,0,0,100,0.00,0.00,15,2,15,0.00
2013-10-27,62,48,39,0,0,0,0,0,100,0.00,0.00,22,3,22,0.00
2013-10-28,45,38,28,0,0,0,0,0,100,0.00,0.00,20,4,20,0.00
2013-10-29,47,35,28,0,0,0,0,0,100,0.00,0.00,14,3,19,0.00
2013-10-30,42,33,28,0,0,0,0,0,100,0.00,0.00,25,7,27,0.00
2013-10-31,44,34,27,0,0,0,0,0,100,0.00,0.00,32,10,33,0.00
2013-11-1,48,37,30,0,0,0,0,0,100,0.00,0.00,19,5,19,0.00
2013-11-2,56,43,32,0,0,0,0,0,100,0.00,0.00,26,7,28,0.00
2013-11-3,49,36,21,0,0,0,0,0,100,0.00,0.00,32,7,32,0.00
2013-11-4,33,26,19,0,0,0,0,0,100,0.00,0.00,17,3,17,0.00
2013-11-5,35,24,15,0,0,0,0,0,100,0.00,0.00,25,8,29,0.00
2013-11-6,42,32,23,0,0,0,0,0,100,0.00,0.00,32,9,33,0.00
2013-11-7,52,40,32,0,0,0,0,0,100,0.00,0.00,24,8,28,0.00
2013-11-8,51,43,37,0,0,0,0,0,100,0.00,0.00,33,9,36,0.00
2013-11-9,58,42,35,0,0,0,0,0,100,0.00,0.00,22,4,22,0.00
2013-11-10,58,43,34,0,0,0,0,0,100,0.00,0.00,23,4,26,0.00
2013-11-11,60,44,34,0,0,0,0,0,100,0.00,0.00,25,4,25,0.00
2013-11-12,57,42,27,0,0,0,0,0,100,0.00,0.00,18,2,18,0.00
2013-11-13,55,45,36,0,0,0,0,0,100,0.00,0.00,20,5,20,0.00
2013-11-14,50,39,28,0,0,0,0,0,100,0.00,0.00,26,6,28,0.00
2013-11-15,47,35,24,0,0,0,0,0,100,0.00,0.00,24,6,24,0.00
2013-11-16,33,28,22,0,0,0,0,0,100,0.00,0.00,30,8,30,0.00
2013-11-17,35,28,20,0,0,0,0,0,100,0.00,0.00,34,9,37,0.00
2013-11-18,48,37,28,0,0,0,0,0,100,0.00,0.00,28,5,28,0.00
2013-11-19,50,39,34,0,0,0,0,0,100,0.00,0.00,29,9,29,0.00
2013-11-20,49,36,20,0,0,0,0,0,100,0.00,0.00,25,5,25,0.00
2013-11-21,20,14,8,0,0,0,0,0,100,0.00,0.00,16,1,17,0.00
2013-11-22,22,10,-1,0,0,0,0,0,100,0.00,0.00,8,0,8,0.00
2013-11-23,35,21,8,0,0,0,0,0,100,0.00,0.00,13,0,13,0.00
2013-11-24,38,25,14,0,0,0,0,0,100,0.00,0.00,18,3,19,0.00
2013-11-25,37,28,22,0,0,0,0,0,100,0.00,0.00,13,2,13,0.00
2013-11-26,39,28,16,0,0,0,0,0,100,0.00,0.00,21,4,21,0.00
2013-11-27,45,34,27,0,0,0,0,0,100,0.00,0.00,19,2,20,0.00
2013-11-28,47,31,21,0,0,0,0,0,100,0.00,0.00,15,1,15,0.00
2013-11-29,44,35,29,0,0,0,0,0,100,0.00,0.00,24,4,24,0.00
2013-11-30,43,33,29,0,0,0,0,0,100,0.00,0.00,27,8,27,0.00
2013-12-1,37,33,26,0,0,0,0,0,100,0.00,0.00,33,10,33,0.00
2013-12-2,42,37,33,0,0,0,0,0,100,0.00,0.00,38,11,38,0.00
2013-12-3,26,10,4,0,0,0,0,0,100,0.00,0.00,9,1,9,0.00
2013-12-4,11,-2,-15,0,0,0,0,0,100,0.00,0.00,8,0,8,0.00
2013-12-5,10,-3,-14,0,0,0,0,0,100,0.00,0.00,10,1,13,0.00
2013-12-6,13,-1,-10,0,0,0,0,0,100,0.00,0.00,14,1,15,0.00
2013-12-7,18,9,-1,0,0,0,0,0,100,0.00,0.00,10,0,10,0.00
2013-12-8,14,5,-2,0,0,0,0,0,100,0.00,0.00,18,7,24,0.00
2013-12-9,13,3,-7,0,0,0,0,0,100,0.00,0.00,33,10,34,0.00
2013-12-10,19,14,6,0,0,0,0,0,100,0.00,0.00,26,11,29,0.00
2013-12-11,28,19,11,0,0,0,0,0,100,0.00,0.00,28,9,28,0.00
2013-12-12,39,28,20,0,0,0,0,0,100,0.00,0.00,13,3,13,0.00
2013-12-13,32,24,17,0,0,0,0,0,100,0.00,0.00,25,6,25,0.00
2013-12-14,30,22,14,0,0,0,0,0,100,0.00,0.00,30,10,31,0.00
2013-12-15,38,30,23,0,0,0,0,0,100,0.00,0.00,35,12,35,0.00
2013-12-16,40,33,29,0,0,0,0,0,100,0.00,0.00,37,12,37,0.00
2013-12-17,43,33,24,0,0,0,0,0,100,0.00,0.00,24,6,25,0.00
2013-12-18,46,38,33,0,0,0,0,0,100,0.00,0.00,28,8,28,0.00
2013-12-19,43,30,13,0,0,0,0,0,100,0.00,0.00,24,6,26,0.00
2013-12-20,23,16,10,0,0,0,0,0,100,0.00,0.00,24,6,26,0.00
2013-12-21,24,19,12,0,0,0,0,0,100,0.00,0.00,31,7,35,0.00
2013-12-22,29,20,10,0,0,0,0,0,100,0.00,0.00,27,7,28,0.00
2013-12-23,35,27,15,0,0,0,0,0,100,0.00,0.00,31,10,34,0.00
2013-12-24,35,27,16,0,0,0,0,0,100,0.00,0.00,37,7,37,0.00
2013-12-25,30,21,13,0,0,0,0,0,100,0.00,0.00,28,8,30,0.00
2013-12-26,36,28,22,0,0,0,0,0,100,0.00,0.00,26,7,32,0.00
2013-12-27,42,32,26,0,0,0,0,0,100,0.00,0.00,26,5,26,0.00
2013-12-28,39,29,19,0,0,0,0,0,100,0.00,0.00,28,3,29,0.00
2013-12-29,26,18,7,0,0,0,0,0,100,0.00,0.00,31,7,31,0.00
2013-12-30,34,25,17,0,0,0,0,0,100,0.00,0.00,25,8,25,0.00
2013-12-31,36,32,27,0,0,0,0,0,100,0.00,0.00,31,10,31,0.00
2014-1-1,32,25,17,0,0,0,0,0,100,0.00,0.00,24,4,26,0.00
2014-1-2,38,27,19,0,0,0,0,0,100,0.00,0.00,26,8,26,0.00